• In Kazakhstan
  • List of Countries
  • For 7 days
  • Water Temperature
  • Weather Map
  • News
  • Weather Widgets
  • user-avatar
    Login

    Hourly Weather Natitingou

    Today, 23 August, Friday

    Time Temperature Precipitation Wind Pressure Humidity
    00:00 +23°C° 0 mm 2 mps 718 mmHg 97%
    01:00 +23°C° 0.2 mm 2 mps 718 mmHg 98%
    02:00 +23°C° 0.2 mm 2 mps 717 mmHg 98%
    03:00 +23°C° 0.2 mm 2 mps 717 mmHg 98%
    04:00 +23°C° 1 mm 2 mps 717 mmHg 98%
    05:00 +21°C° 1 mm 2 mps 718 mmHg 98%
    06:00 +21°C° 0 mm 2 mps 719 mmHg 97%
    07:00 +23°C° 0.2 mm 2 mps 719 mmHg 94%
    08:00 +24°C° 0.2 mm 3 mps 719 mmHg 91%
    09:00 +26°C° 0.2 mm 4 mps 719 mmHg 88%
    10:00 +26°C° 1.5 mm 4 mps 719 mmHg 87%
    11:00 +27°C° 1.5 mm 4 mps 719 mmHg 85%
    12:00 +27°C° 1.5 mm 4 mps 718 mmHg 84%
    13:00 +27°C° 1.4 mm 4 mps 718 mmHg 84%
    14:00 +27°C° 1.4 mm 3 mps 717 mmHg 85%
    15:00 +27°C° 1.4 mm 3 mps 716 mmHg 85%
    16:00 +26°C° 0.4 mm 3 mps 717 mmHg 88%
    17:00 +26°C° 0.4 mm 3 mps 717 mmHg 91%
    18:00 +25°C° 0.4 mm 3 mps 717 mmHg 93%
    19:00 +25°C° 0.4 mm 2 mps 717 mmHg 94%
    20:00 +24°C° 0.4 mm 2 mps 718 mmHg 95%
    21:00 +24°C° 0.4 mm 2 mps 718 mmHg 95%
    22:00 +24°C° 0.7 mm 2 mps 718 mmHg 95%
    23:00 +24°C° 0.7 mm 3 mps 719 mmHg 95%

    Tomorrow, 24 August, Saturday

    Time Temperature Precipitation Wind Pressure Humidity
    00:00 +22°C° 0.7 mm 3 mps 719 mmHg 95%
    01:00 +22°C° 0.6 mm 3 mps 718 mmHg 95%
    02:00 +23°C° 0.6 mm 2 mps 718 mmHg 96%
    03:00 +23°C° 0.6 mm 2 mps 718 mmHg 96%
    04:00 +23°C° 0.5 mm 2 mps 718 mmHg 96%
    05:00 +23°C° 0.5 mm 2 mps 718 mmHg 96%
    06:00 +22°C° 0.5 mm 3 mps 719 mmHg 97%
    07:00 +22°C° 0.6 mm 3 mps 719 mmHg 97%
    08:00 +22°C° 0.6 mm 3 mps 719 mmHg 97%
    09:00 +22°C° 0.6 mm 3 mps 719 mmHg 97%
    10:00 +22°C° 0.6 mm 3 mps 719 mmHg 96%
    11:00 +23°C° 0.6 mm 4 mps 719 mmHg 94%
    12:00 +23°C° 0.6 mm 4 mps 719 mmHg 93%
    13:00 +23°C° 0.2 mm 4 mps 719 mmHg 91%
    14:00 +23°C° 0.2 mm 5 mps 718 mmHg 90%
    15:00 +23°C° 0.2 mm 5 mps 717 mmHg 88%
    16:00 +23°C° 0 mm 4 mps 718 mmHg 89%
    17:00 +22°C° 0 mm 3 mps 718 mmHg 90%
    18:00 +22°C° 0 mm 3 mps 718 mmHg 91%
    19:00 +22°C° 0 mm 3 mps 719 mmHg 92%
    20:00 +23°C° 0 mm 2 mps 719 mmHg 93%
    21:00 +21°C° 0 mm 2 mps 720 mmHg 94%
    22:00 +23°C° 0 mm 2 mps 720 mmHg 93%
    23:00 +22°C° 0 mm 3 mps 719 mmHg 91%

    Day after tomorrow, 25 August, Sunday

    Time Temperature Precipitation Wind Pressure Humidity
    00:00 +22°C° 0 mm 3 mps 719 mmHg 89%
    01:00 +22°C° 0 mm 3 mps 719 mmHg 90%
    02:00 +22°C° 0 mm 3 mps 719 mmHg 90%
    03:00 +22°C° 0 mm 3 mps 718 mmHg 91%
    04:00 +21°C° 0 mm 3 mps 718 mmHg 92%
    05:00 +21°C° 0 mm 3 mps 719 mmHg 93%
    06:00 +21°C° 0 mm 3 mps 719 mmHg 94%
    07:00 +22°C° 0 mm 3 mps 719 mmHg 93%
    08:00 +22°C° 0 mm 3 mps 720 mmHg 92%
    09:00 +22°C° 0 mm 3 mps 720 mmHg 91%
    10:00 +25°C° 0.2 mm 3 mps 720 mmHg 87%
    11:00 +26°C° 0.2 mm 4 mps 720 mmHg 83%
    12:00 +27°C° 0.2 mm 4 mps 719 mmHg 79%
    13:00 +27°C° 0.7 mm 3 mps 719 mmHg 81%
    14:00 +26°C° 0.7 mm 3 mps 718 mmHg 83%
    15:00 +26°C° 0.7 mm 3 mps 718 mmHg 85%
    16:00 +25°C° 0.1 mm 2 mps 718 mmHg 88%
    17:00 +24°C° 0.1 mm 2 mps 717 mmHg 91%
    18:00 +24°C° 0.1 mm 1 mps 717 mmHg 95%
    19:00 +23°C° 0 mm 1 mps 718 mmHg 95%
    20:00 +23°C° 0 mm 1 mps 718 mmHg 96%
    21:00 +23°C° 0 mm 1 mps 719 mmHg 96%
    22:00 +23°C° 0.1 mm 1 mps 719 mmHg 96%
    23:00 +23°C° 0.1 mm 2 mps 719 mmHg 96%

    26 August, Monday

    Time Temperature Precipitation Wind Pressure Humidity
    00:00 +23°C° 0.1 mm 2 mps 719 mmHg 96%
    01:00 +23°C° 0 mm 2 mps 718 mmHg 96%
    02:00 +21°C° 0 mm 2 mps 718 mmHg 96%
    03:00 +21°C° 0 mm 2 mps 717 mmHg 97%
    04:00 +21°C° 0.1 mm 2 mps 718 mmHg 97%
    05:00 +21°C° 0.1 mm 2 mps 718 mmHg 96%
    06:00 +21°C° 0.1 mm 2 mps 718 mmHg 96%
    07:00 +22°C° 0 mm 3 mps 719 mmHg 93%
    08:00 +24°C° 0 mm 3 mps 719 mmHg 90%
    09:00 +25°C° 0 mm 4 mps 720 mmHg 86%
    10:00 +26°C° 0.5 mm 4 mps 719 mmHg 83%
    11:00 +27°C° 0.5 mm 4 mps 719 mmHg 80%
    12:00 +27°C° 0.5 mm 5 mps 718 mmHg 77%
    13:00 +27°C° 0.7 mm 4 mps 718 mmHg 78%
    14:00 +27°C° 0.7 mm 4 mps 717 mmHg 79%
    15:00 +27°C° 0.7 mm 4 mps 717 mmHg 80%
    16:00 +26°C° 0.2 mm 3 mps 717 mmHg 84%
    17:00 +25°C° 0.2 mm 3 mps 717 mmHg 89%
    18:00 +24°C° 0.2 mm 2 mps 717 mmHg 93%
    19:00 +24°C° 0.3 mm 2 mps 717 mmHg 94%
    20:00 +24°C° 0.3 mm 2 mps 718 mmHg 95%
    21:00 +23°C° 0.3 mm 2 mps 718 mmHg 96%
    22:00 +23°C° 0.3 mm 2 mps 718 mmHg 96%
    23:00 +23°C° 0.3 mm 2 mps 718 mmHg 96%

    27 August, Tuesday

    Time Temperature Precipitation Wind Pressure Humidity
    00:00 +23°C° 0.3 mm 2 mps 718 mmHg 95%
    01:00 +23°C° 0.4 mm 2 mps 718 mmHg 96%
    02:00 +23°C° 0.4 mm 2 mps 718 mmHg 96%
    03:00 +21°C° 0.4 mm 2 mps 717 mmHg 97%
    04:00 +21°C° 0 mm 2 mps 718 mmHg 96%
    05:00 +21°C° 0 mm 2 mps 718 mmHg 96%
    06:00 +21°C° 0 mm 2 mps 718 mmHg 95%
    07:00 +22°C° 0 mm 3 mps 719 mmHg 92%
    08:00 +24°C° 0 mm 3 mps 719 mmHg 89%
    09:00 +25°C° 0 mm 4 mps 720 mmHg 85%
    10:00 +26°C° 0.6 mm 4 mps 720 mmHg 83%
    11:00 +27°C° 0.6 mm 4 mps 719 mmHg 81%
    12:00 +28°C° 0.6 mm 4 mps 719 mmHg 79%
    13:00 +27°C° 1.6 mm 3 mps 718 mmHg 80%
    14:00 +27°C° 1.6 mm 3 mps 717 mmHg 82%
    15:00 +27°C° 1.6 mm 3 mps 717 mmHg 83%
    16:00 +26°C° 1.1 mm 2 mps 717 mmHg 87%
    17:00 +25°C° 1.1 mm 2 mps 717 mmHg 90%
    18:00 +25°C° 1.1 mm 1 mps 717 mmHg 94%
    19:00 +24°C° 1.6 mm 1 mps 718 mmHg 94%
    20:00 +24°C° 1.6 mm 1 mps 718 mmHg 94%
    21:00 +24°C° 1.6 mm 1 mps 719 mmHg 95%
    22:00 +24°C° 0.6 mm 1 mps 719 mmHg 95%
    23:00 +23°C° 0.6 mm 1 mps 719 mmHg 95%

    28 August, Wednesday

    Time Temperature Precipitation Wind Pressure Humidity
    00:00 +23°C° 0.6 mm 1 mps 719 mmHg 95%
    01:00 +23°C° 0.8 mm 1 mps 718 mmHg 95%
    02:00 +23°C° 0.8 mm 2 mps 718 mmHg 95%
    03:00 +23°C° 0.8 mm 2 mps 718 mmHg 96%
    04:00 +23°C° 1.4 mm 2 mps 718 mmHg 96%
    05:00 +23°C° 1.4 mm 2 mps 718 mmHg 97%
    06:00 +23°C° 1.4 mm 2 mps 718 mmHg 98%
    07:00 +23°C° 1.1 mm 2 mps 719 mmHg 97%
    08:00 +23°C° 1.1 mm 2 mps 719 mmHg 96%
    09:00 +23°C° 1.1 mm 2 mps 720 mmHg 95%
    10:00 +24°C° 0.9 mm 2 mps 719 mmHg 94%
    11:00 +24°C° 0.9 mm 3 mps 719 mmHg 93%
    12:00 +25°C° 0.9 mm 3 mps 719 mmHg 91%
    13:00 +25°C° 0.6 mm 3 mps 718 mmHg 92%
    14:00 +24°C° 0.6 mm 3 mps 718 mmHg 94%
    15:00 +24°C° 0.6 mm 2 mps 717 mmHg 95%
    16:00 +24°C° 0.2 mm 2 mps 718 mmHg 95%
    17:00 +23°C° 0.2 mm 2 mps 718 mmHg 96%
    18:00 +23°C° 0.2 mm 2 mps 718 mmHg 96%
    19:00 +23°C° 0.1 mm 1 mps 718 mmHg 97%
    20:00 +23°C° 0.1 mm 1 mps 719 mmHg 97%
    21:00 +23°C° 0.1 mm 1 mps 719 mmHg 98%
    22:00 +23°C° 0.1 mm 1 mps 719 mmHg 98%
    23:00 +22°C° 0.1 mm 1 mps 719 mmHg 98%
    Show more